{"data":{"norad_id":42695,"intl_designator":"2017-024A","name":"GSAT-9","alt_names":[],"object_type":"PAYLOAD","status":"ACTIVE","operator":null,"country":"IND","launch_date":"2017-05-05","launch_site_code":"SRILR","launch_vehicle":null,"mission":null,"orbit_class":"UNKNOWN","rcs_meters":null,"size_class":null,"mass_kg":null,"dimensions":null,"purposes":["comms"],"wikipedia_slug":null,"has_3d_model":false,"image_url":null,"decayed_at":null,"tle_current":{"epoch":"2026-09-20T00:16:39.283392Z","epoch_age_seconds":67992,"freshness":"FRESH","line1":"1 42695U 17024A   26263.01156578 -.00000291  00000+0  00000+0 0  9993","line2":"2 42695   0.0379  99.8620 0002734  74.2518 286.2627  1.00275842 34250","mean_motion":1.00275842,"eccentricity":0.0002734,"inclination_deg":0.0379,"raan_deg":99.862,"arg_perigee_deg":74.2518,"mean_anomaly_deg":286.2627,"bstar":0,"rev_number":3425,"period_min":1436.0388018482,"perigee_km":35773.930148379,"apogee_km":35796.985201947,"semimajor_km":42163.594675163,"source":"CELESTRAK","updated_at":"2026-09-20T09:00:35.252970Z"}}}